Location: Kings Park
(40.8862°N, 73.2573°W)
Time: 05:09:08
(UTC+00:00)

YAOGAN 6 - Pass Details

Date: 29 October 2020
Orbit: 465 x 504 km, 97.0° (Epoch: 27 November)

Event Time Altitude Azimuth Distance (km) Brightness Sun altitude
Rises 22:25:00 0° 179° (S) 2,563 6.4 -6.8°
Reaches altitude 10° 22:27:06 10° 184° (S) 1,691 5.5 -7.2°
Maximum altitude 22:30:39 51° 261° (W) 640 3.7 -7.9°
Drops below altitude 10° 22:34:16 10° 338° (NNW) 1,719 5.5 -8.6°
Sets 22:36:25 0° 344° (NNW) 2,611 6.4 -9.0°
